| time (UTC) | temp C | wind direction | speed KPH | gust KPH | rain 1hr cm | rain 24hr cm | rain mn cm | humidity % | barometer mb |
| 20260901230546 | 11 | 0 | 0.0 | 0.0 | 0.00 | 0.00 | 0.00 | 95 | 1021.7 |
| 20260901230105 | 11 | 0 | 0.0 | 0.0 | 0.00 | 0.00 | 0.00 | 95 | 1021.8 |
| 20260901225547 | 12 | 0 | 0.0 | 0.0 | 0.00 | 0.00 | 0.00 | 95 | 1021.9 |
| 20260901225045 | 12 | 0 | 0.0 | 0.0 | 0.00 | 0.00 | 0.00 | 95 | 1022.0 |
| 20260901224605 | 11 | 0 | 0.0 | 0.0 | 0.00 | 0.00 | 0.00 | 95 | 1021.9 |
| 20260901224046 | 11 | 0 | 0.0 | 0.0 | 0.00 | 0.00 | 0.00 | 95 | 1022.0 |
| 20260901223546 | 11 | 0 | 0.0 | 0.0 | 0.00 | 0.00 | 0.00 | 95 | 1022.1 |
| 20260901223109 | 11 | 0 | 0.0 | 0.0 | 0.00 | 0.00 | 0.00 | 95 | 1022.0 |
| 20260901222545 | 11 | 0 | 0.0 | 0.0 | 0.00 | 0.00 | 0.00 | 95 | 1022.0 |
| 20260901222047 | 11 | 0 | 0.0 | 0.0 | 0.00 | 0.00 | 0.00 | 95 | 1022.1 |
| 20260901221607 | 12 | 0 | 0.0 | 0.0 | 0.00 | 0.00 | 0.00 | 94 | 1022.1 |
| 20260901221046 | 12 | 0 | 0.0 | 0.0 | 0.00 | 0.00 | 0.00 | 94 | 1022.0 |
| 20260901220545 | 12 | 0 | 0.0 | 0.0 | 0.00 | 0.00 | 0.00 | 94 | 1022.0 |
| 20260901220107 | 12 | 0 | 0.0 | 0.0 | 0.00 | 0.00 | 0.00 | 94 | 1021.9 |
| 20260901215546 | 12 | 0 | 0.0 | 0.0 | 0.00 | 0.00 | 0.00 | 94 | 1021.8 |
| 20260901215045 | 12 | 0 | 0.0 | 0.0 | 0.00 | 0.00 | 0.00 | 94 | 1021.9 |
| 20260901214601 | 12 | 0 | 0.0 | 0.0 | 0.00 | 0.00 | 0.00 | 94 | 1021.9 |
| 20260901214046 | 12 | 0 | 0.0 | 0.0 | 0.00 | 0.00 | 0.00 | 94 | 1022.0 |
| 20260901213547 | 12 | 0 | 0.0 | 0.0 | 0.00 | 0.00 | 0.00 | 94 | 1021.9 |
| 20260901213102 | 12 | 0 | 0.0 | 0.0 | 0.00 | 0.00 | 0.00 | 94 | 1021.9 |
| 20260901212546 | 12 | 0 | 0.0 | 0.0 | 0.00 | 0.00 | 0.00 | 94 | 1021.9 |
| 20260901212046 | 12 | 0 | 0.0 | 0.0 | 0.00 | 0.00 | 0.00 | 94 | 1021.8 |
| 20260901211603 | 12 | 0 | 0.0 | 0.0 | 0.00 | 0.00 | 0.00 | 93 | 1021.7 |
| 20260901211050 | 12 | 0 | 0.0 | 0.0 | 0.00 | 0.00 | 0.00 | 93 | 1021.7 |
| 20260901210545 | 12 | 0 | 0.0 | 0.0 | 0.00 | 0.00 | 0.00 | 93 | 1021.7 |
| 20260901210114 | 12 | 0 | 0.0 | 0.0 | 0.00 | 0.00 | 0.00 | 93 | 1021.7 |
| 20260901205546 | 12 | 0 | 0.0 | 0.0 | 0.00 | 0.00 | 0.00 | 93 | 1021.6 |
| 20260901205045 | 12 | 0 | 0.0 | 0.0 | 0.00 | 0.00 | 0.00 | 93 | 1021.7 |
| 20260901204559 | 13 | 0 | 0.0 | 0.0 | 0.00 | 0.00 | 0.00 | 92 | 1021.6 |
| 20260901204047 | 13 | 0 | 0.0 | 0.0 | 0.00 | 0.00 | 0.00 | 92 | 1021.6 |
| 20260901203546 | 13 | 0 | 0.0 | 0.0 | 0.00 | 0.00 | 0.00 | 92 | 1021.5 |
| 20260901203116 | 13 | 0 | 0.0 | 0.0 | 0.00 | 0.00 | 0.00 | 92 | 1021.5 |
| 20260901202548 | 13 | 0 | 0.0 | 0.0 | 0.00 | 0.00 | 0.00 | 91 | 1021.5 |
| 20260901202046 | 13 | 0 | 0.0 | 0.0 | 0.00 | 0.00 | 0.00 | 91 | 1021.6 |
| 20260901201602 | 13 | 0 | 0.0 | 0.0 | 0.00 | 0.00 | 0.00 | 90 | 1021.6 |
| 20260901201047 | 13 | 0 | 0.0 | 0.0 | 0.00 | 0.00 | 0.00 | 90 | 1021.5 |
| 20260901200546 | 13 | 0 | 0.0 | 0.0 | 0.00 | 0.00 | 0.00 | 90 | 1021.6 |
| 20260901200105 | 13 | 0 | 0.0 | 0.0 | 0.00 | 0.00 | 0.00 | 89 | 1021.5 |
| 20260901195550 | 14 | 0 | 0.0 | 0.0 | 0.00 | 0.00 | 0.00 | 89 | 1021.5 |
| 20260901195045 | 14 | 0 | 0.0 | 0.0 | 0.00 | 0.00 | 0.00 | 89 | 1021.5 |
| 20260901194615 | 14 | 0 | 0.0 | 0.0 | 0.00 | 0.00 | 0.00 | 88 | 1021.6 |
| 20260901194046 | 14 | 0 | 0.0 | 0.0 | 0.00 | 0.00 | 0.00 | 88 | 1021.5 |
| 20260901193546 | 15 | 0 | 0.0 | 0.0 | 0.00 | 0.00 | 0.00 | 87 | 1021.5 |
| 20260901193106 | 15 | 0 | 0.0 | 0.0 | 0.00 | 0.00 | 0.00 | 87 | 1021.5 |
| 20260901192547 | 15 | 0 | 0.0 | 0.0 | 0.00 | 0.00 | 0.00 | 86 | 1021.5 |
| 20260901192047 | 15 | 0 | 0.0 | 0.0 | 0.00 | 0.00 | 0.00 | 85 | 1021.6 |
| 20260901191608 | 15 | 0 | 0.0 | 0.0 | 0.00 | 0.00 | 0.00 | 83 | 1021.7 |
| 20260901191048 | 15 | 0 | 0.0 | 0.0 | 0.00 | 0.00 | 0.00 | 82 | 1021.6 |
| 20260901190545 | 15 | 0 | 0.0 | 0.0 | 0.00 | 0.00 | 0.00 | 81 | 1021.6 |
| 20260901190115 | 15 | 0 | 0.0 | 0.0 | 0.00 | 0.00 | 0.00 | 80 | 1021.6 |
| 20260901185548 | 16 | 0 | 0.0 | 0.0 | 0.00 | 0.00 | 0.00 | 80 | 1021.6 |
| 20260901185049 | 16 | 0 | 0.0 | 0.0 | 0.00 | 0.00 | 0.00 | 79 | 1021.6 |
| 20260901184601 | 16 | 0 | 0.0 | 0.0 | 0.00 | 0.00 | 0.00 | 79 | 1021.5 |
| 20260901184045 | 16 | 0 | 0.0 | 0.0 | 0.00 | 0.00 | 0.00 | 78 | 1021.5 |
| 20260901183545 | 16 | 0 | 0.0 | 0.0 | 0.00 | 0.00 | 0.00 | 79 | 1021.4 |
| 20260901183107 | 16 | 0 | 0.0 | 0.0 | 0.00 | 0.00 | 0.00 | 78 | 1021.4 |
| 20260901182546 | 16 | 0 | 0.0 | 0.0 | 0.00 | 0.00 | 0.00 | 77 | 1021.4 |
| 20260901182046 | 17 | 0 | 0.0 | 0.0 | 0.00 | 0.00 | 0.00 | 78 | 1021.4 |
| 20260901181605 | 17 | 0 | 0.0 | 0.0 | 0.00 | 0.00 | 0.00 | 78 | 1021.3 |
| 20260901181046 | 17 | 0 | 0.0 | 0.0 | 0.00 | 0.00 | 0.00 | 79 | 1021.2 |
| 20260901180545 | 17 | 0 | 0.0 | 0.0 | 0.00 | 0.00 | 0.00 | 79 | 1021.3 |
| 20260901180108 | 17 | 0 | 0.0 | 0.0 | 0.00 | 0.00 | 0.00 | 79 | 1021.3 |
| 20260901175546 | 17 | 0 | 0.0 | 0.0 | 0.00 | 0.00 | 0.00 | 79 | 1021.2 |
| 20260901175044 | 17 | 0 | 0.0 | 0.0 | 0.00 | 0.00 | 0.00 | 79 | 1021.3 |
| 20260901174622 | 17 | 0 | 0.0 | 0.0 | 0.00 | 0.00 | 0.00 | 78 | 1021.1 |
| 20260901174047 | 17 | 0 | 0.0 | 0.0 | 0.00 | 0.00 | 0.00 | 78 | 1021.1 |
| 20260901173546 | 17 | 0 | 0.0 | 0.0 | 0.00 | 0.00 | 0.00 | 78 | 1021.1 |
| 20260901173105 | 17 | 0 | 0.0 | 0.0 | 0.00 | 0.00 | 0.00 | 78 | 1021.0 |
| 20260901172549 | 18 | 0 | 0.0 | 0.0 | 0.00 | 0.00 | 0.00 | 77 | 1020.9 |
| 20260901172046 | 18 | 0 | 0.0 | 9.7 | 0.00 | 0.00 | 0.00 | 76 | 1020.9 |
| 20260901171606 | 18 | 0 | 0.0 | 9.7 | 0.00 | 0.00 | 0.00 | 74 | 1020.9 |
| 20260901171046 | 18 | 0 | 0.0 | 9.7 | 0.00 | 0.00 | 0.00 | 73 | 1020.9 |
| 20260901170546 | 18 | 0 | 0.0 | 4.8 | 0.00 | 0.00 | 0.00 | 73 | 1020.7 |
| 20260901170106 | 18 | 0 | 0.0 | 0.0 | 0.00 | 0.00 | 0.00 | 74 | 1020.8 |
| 20260901165546 | 18 | 0 | 0.0 | 8.0 | 0.00 | 0.00 | 0.00 | 74 | 1020.9 |
| 20260901165046 | 18 | 0 | 0.0 | 8.0 | 0.00 | 0.00 | 0.00 | 73 | 1020.9 |
| 20260901164602 | 18 | 0 | 0.0 | 8.0 | 0.00 | 0.00 | 0.00 | 74 | 1020.9 |
| 20260901164045 | 18 | 0 | 0.0 | 0.0 | 0.00 | 0.00 | 0.00 | 73 | 1020.9 |
| 20260901163546 | 18 | 0 | 0.0 | 0.0 | 0.00 | 0.00 | 0.00 | 72 | 1020.9 |
| 20260901163105 | 19 | 0 | 0.0 | 0.0 | 0.00 | 0.00 | 0.00 | 70 | 1020.9 |
| 20260901162545 | 19 | 0 | 0.0 | 0.0 | 0.00 | 0.00 | 0.00 | 71 | 1020.9 |
| 20260901162045 | 19 | 0 | 0.0 | 0.0 | 0.00 | 0.00 | 0.00 | 71 | 1020.9 |
| 20260901161615 | 19 | 0 | 0.0 | 6.4 | 0.00 | 0.00 | 0.00 | 71 | 1020.9 |
| 20260901161046 | 18 | 0 | 0.0 | 6.4 | 0.00 | 0.00 | 0.00 | 74 | 1020.8 |
| 20260901160546 | 18 | 0 | 0.0 | 0.0 | 0.00 | 0.00 | 0.00 | 74 | 1020.9 |
| 20260901160107 | 18 | 0 | 0.0 | 0.0 | 0.00 | 0.00 | 0.00 | 75 | 1021.0 |
| 20260901155546 | 18 | 0 | 0.0 | 0.0 | 0.00 | 0.00 | 0.00 | 75 | 1020.8 |
| 20260901155046 | 19 | 0 | 0.0 | 4.8 | 0.00 | 0.00 | 0.00 | 72 | 1020.9 |
| 20260901154603 | 19 | 0 | 0.0 | 8.0 | 0.00 | 0.00 | 0.00 | 73 | 1020.9 |
| 20260901154046 | 19 | 0 | 0.0 | 8.0 | 0.00 | 0.00 | 0.00 | 73 | 1020.9 |
| 20260901153546 | 19 | 234 | 0.0 | 1.6 | 0.00 | 0.00 | 0.00 | 74 | 1020.9 |
| 20260901153102 | 19 | 0 | 0.0 | 0.0 | 0.00 | 0.00 | 0.00 | 74 | 1020.9 |
| 20260901152546 | 19 | 0 | 0.0 | 0.0 | 0.00 | 0.00 | 0.00 | 76 | 1020.8 |
| 20260901152045 | 18 | 0 | 0.0 | 0.0 | 0.00 | 0.00 | 0.00 | 74 | 1020.8 |
| 20260901151606 | 18 | 0 | 0.0 | 0.0 | 0.00 | 0.00 | 0.00 | 75 | 1020.8 |
| 20260901151048 | 18 | 0 | 0.0 | 0.0 | 0.00 | 0.00 | 0.00 | 75 | 1020.9 |
| 20260901150545 | 18 | 0 | 0.0 | 9.7 | 0.00 | 0.00 | 0.00 | 74 | 1020.8 |
| 20260901150123 | 18 | 0 | 0.0 | 9.7 | 0.00 | 0.00 | 0.00 | 74 | 1020.9 |
| 20260901145546 | 18 | 0 | 0.0 | 11.3 | 0.00 | 0.15 | 0.00 | 73 | 1020.9 |
| 20260901145045 | 19 | 0 | 0.0 | 11.3 | 0.00 | 0.15 | 0.00 | 73 | 1020.8 |
| 20260901144607 | 19 | 0 | 0.0 | 11.3 | 0.00 | 0.15 | 0.00 | 73 | 1020.9 |
| 20260901144045 | 19 | 0 | 0.0 | 0.0 | 0.00 | 0.15 | 0.00 | 72 | 1020.8 |
| 20260901143546 | 19 | 0 | 0.0 | 19.3 | 0.00 | 0.15 | 0.00 | 73 | 1020.9 |
| 20260901143139 | 19 | 0 | 0.0 | 19.3 | 0.00 | 0.15 | 0.00 | 73 | 1020.8 |
| 20260901142544 | 19 | 0 | 0.0 | 11.3 | 0.00 | 0.15 | 0.00 | 74 | 1020.9 |
| 20260901142045 | 19 | 0 | 0.0 | 9.7 | 0.00 | 0.15 | 0.00 | 74 | 1020.9 |
| 20260901141612 | 19 | 0 | 0.0 | 9.7 | 0.00 | 0.15 | 0.00 | 73 | 1020.8 |
| 20260901141046 | 19 | 0 | 0.0 | 9.7 | 0.00 | 0.15 | 0.00 | 76 | 1020.8 |
| 20260901140547 | 19 | 0 | 0.0 | 12.9 | 0.00 | 0.15 | 0.00 | 77 | 1020.9 |
| 20260901140107 | 19 | 0 | 1.6 | 12.9 | 0.00 | 0.15 | 0.00 | 77 | 1020.9 |
| 20260901135546 | 18 | 0 | 0.0 | 11.3 | 0.00 | 0.15 | 0.00 | 76 | 1021.0 |
| 20260901135046 | 18 | 248 | 0.0 | 11.3 | 0.00 | 0.15 | 0.00 | 77 | 1021.0 |
| 20260901134607 | 18 | 0 | 0.0 | 6.4 | 0.00 | 0.15 | 0.00 | 79 | 1021.1 |
| 20260901134047 | 18 | 0 | 0.0 | 4.8 | 0.00 | 0.15 | 0.00 | 79 | 1021.1 |
| 20260901133544 | 18 | 0 | 0.0 | 11.3 | 0.00 | 0.15 | 0.00 | 78 | 1021.0 |
| 20260901133110 | 18 | 0 | 0.0 | 11.3 | 0.00 | 0.15 | 0.00 | 78 | 1021.0 |
| 20260901132546 | 18 | 0 | 1.6 | 11.3 | 0.00 | 0.15 | 0.00 | 80 | 1021.0 |
| 20260901132050 | 18 | 0 | 0.0 | 6.4 | 0.00 | 0.15 | 0.00 | 81 | 1021.1 |
| 20260901131605 | 18 | 0 | 0.0 | 0.0 | 0.00 | 0.15 | 0.00 | 85 | 1021.0 |
| 20260901131045 | 17 | 0 | 0.0 | 0.0 | 0.00 | 0.15 | 0.00 | 84 | 1021.1 |
| 20260901130546 | 17 | 0 | 0.0 | 0.0 | 0.00 | 0.15 | 0.00 | 86 | 1021.2 |
| 20260901130108 | 17 | 0 | 0.0 | 4.8 | 0.00 | 0.15 | 0.00 | 86 | 1021.2 |
| 20260901125545 | 16 | 0 | 0.0 | 4.8 | 0.00 | 0.15 | 0.00 | 87 | 1021.1 |
| 20260901125048 | 16 | 0 | 0.0 | 0.0 | 0.00 | 0.15 | 0.00 | 88 | 1021.1 |
| 20260901124603 | 16 | 0 | 0.0 | 4.8 | 0.00 | 0.15 | 0.00 | 89 | 1021.2 |
| 20260901124047 | 16 | 0 | 0.0 | 6.4 | 0.00 | 0.15 | 0.00 | 89 | 1021.2 |
| 20260901123546 | 16 | 0 | 0.0 | 11.3 | 0.00 | 0.15 | 0.00 | 89 | 1021.3 |
| 20260901123110 | 16 | 0 | 0.0 | 27.4 | 0.00 | 0.13 | 0.00 | 88 | 1021.4 |
| 20260901122546 | 16 | 258 | 3.2 | 29.0 | 0.00 | 0.13 | 0.00 | 87 | 1021.3 |
| 20260901122048 | 16 | 272 | 1.6 | 29.0 | 0.00 | 0.13 | 0.00 | 86 | 1021.5 |
| 20260901121604 | 17 | 242 | 4.8 | 29.0 | 0.00 | 0.13 | 0.00 | 85 | 1021.4 |
| 20260901121045 | 17 | 0 | 8.0 | 43.5 | 0.00 | 0.13 | 0.00 | 81 | 1021.3 |
| 20260901120544 | 18 | 0 | 11.3 | 43.5 | 0.00 | 0.13 | 0.00 | 77 | 1021.0 |
| 20260901120120 | 19 | 222 | 4.8 | 43.5 | 0.00 | 0.13 | 0.00 | 76 | 1020.9 |
| 20260901115548 | 20 | 213 | 6.4 | 27.4 | 0.00 | 0.15 | 0.00 | 72 | 1020.5 |
| 20260901115045 | 20 | 0 | 3.2 | 25.7 | 0.00 | 0.15 | 0.00 | 71 | 1020.4 |
| 20260901114604 | 20 | 239 | 0.0 | 19.3 | 0.00 | 0.15 | 0.00 | 72 | 1020.4 |
| 20260901114045 | 20 | 0 | 3.2 | 20.9 | 0.00 | 0.15 | 0.00 | 71 | 1020.4 |
| 20260901113546 | 20 | 0 | 6.4 | 20.9 | 0.00 | 0.15 | 0.00 | 70 | 1020.4 |
| 20260901113107 | 21 | 0 | 3.2 | 19.3 | 0.00 | 0.15 | 0.00 | 71 | 1020.3 |
| 20260901112546 | 20 | 0 | 1.6 | 24.1 | 0.00 | 0.15 | 0.00 | 69 | 1020.4 |
| 20260901112045 | 20 | 251 | 0.0 | 24.1 | 0.00 | 0.15 | 0.00 | 70 | 1020.4 |
| 20260901111606 | 20 | 0 | 6.4 | 25.7 | 0.00 | 0.15 | 0.00 | 71 | 1020.4 |
| 20260901111046 | 20 | 273 | 8.0 | 25.7 | 0.00 | 0.15 | 0.00 | 73 | 1020.5 |
| 20260901110546 | 19 | 232 | 4.8 | 22.5 | 0.00 | 0.15 | 0.00 | 74 | 1020.4 |
| 20260901105542 | 20 | 0 | 1.6 | 17.7 | 0.00 | 0.15 | 0.00 | 75 | 1020.4 |
| 20260901105044 | 20 | 0 | 1.6 | 17.7 | 0.00 | 0.15 | 0.00 | 77 | 1020.4 |
| 20260901104601 | 19 | 0 | 1.6 | 14.5 | 0.00 | 0.15 | 0.00 | 79 | 1020.4 |
| 20260901104045 | 18 | 234 | 1.6 | 19.3 | 0.00 | 0.15 | 0.00 | 80 | 1020.4 |
| 20260901103545 | 18 | 249 | 4.8 | 19.3 | 0.00 | 0.15 | 0.00 | 79 | 1020.5 |
| 20260901103109 | 18 | 243 | 1.6 | 20.9 | 0.00 | 0.15 | 0.00 | 78 | 1020.5 |
| 20260901102546 | 19 | 226 | 0.0 | 20.9 | 0.00 | 0.15 | 0.00 | 78 | 1020.5 |
| 20260901102045 | 19 | 234 | 3.2 | 17.7 | 0.00 | 0.15 | 0.00 | 78 | 1020.6 |
| 20260901101608 | 19 | 0 | 3.2 | 17.7 | 0.00 | 0.15 | 0.00 | 79 | 1020.5 |
| 20260901101048 | 18 | 0 | 0.0 | 12.9 | 0.00 | 0.15 | 0.00 | 79 | 1020.6 |
| 20260901100546 | 18 | 219 | 0.0 | 12.9 | 0.00 | 0.15 | 0.00 | 82 | 1020.8 |
| 20260901100107 | 18 | 0 | 3.2 | 14.5 | 0.00 | 0.15 | 0.00 | 83 | 1020.7 |
| 20260901095545 | 17 | 0 | 0.0 | 17.7 | 0.00 | 0.15 | 0.00 | 83 | 1020.6 |
| 20260901095045 | 17 | 239 | 1.6 | 17.7 | 0.00 | 0.15 | 0.00 | 84 | 1020.7 |
| 20260901094605 | 17 | 232 | 1.6 | 12.9 | 0.00 | 0.15 | 0.00 | 84 | 1020.7 |
| 20260901094045 | 17 | 0 | 0.0 | 12.9 | 0.00 | 0.15 | 0.00 | 83 | 1020.8 |
| 20260901093544 | 17 | 0 | 0.0 | 14.5 | 0.00 | 0.15 | 0.00 | 83 | 1020.8 |
| 20260901093105 | 18 | 0 | 1.6 | 14.5 | 0.00 | 0.15 | 0.00 | 83 | 1020.7 |
| 20260901092546 | 18 | 229 | 0.0 | 11.3 | 0.00 | 0.15 | 0.00 | 84 | 1020.6 |
| 20260901092045 | 18 | 0 | 0.0 | 11.3 | 0.00 | 0.15 | 0.00 | 85 | 1020.7 |
| 20260901091602 | 17 | 237 | 0.0 | 11.3 | 0.00 | 0.15 | 0.00 | 85 | 1020.6 |
| 20260901091045 | 17 | 0 | 0.0 | 11.3 | 0.00 | 0.15 | 0.00 | 86 | 1020.5 |
| 20260901090550 | 17 | 208 | 0.0 | 12.9 | 0.00 | 0.15 | 0.00 | 87 | 1020.6 |
| 20260901090056 | 17 | 215 | 1.6 | 14.5 | 0.00 | 0.15 | 0.00 | 86 | 1020.6 |
| 20260901085544 | 17 | 215 | 0.0 | 17.7 | 0.00 | 0.15 | 0.00 | 86 | 1020.7 |
| 20260901085048 | 17 | 218 | 1.6 | 17.7 | 0.00 | 0.15 | 0.00 | 85 | 1020.7 |
| 20260901084600 | 17 | 238 | 0.0 | 14.5 | 0.00 | 0.15 | 0.00 | 85 | 1020.6 |
| 20260901084045 | 17 | 0 | 0.0 | 14.5 | 0.00 | 0.15 | 0.00 | 85 | 1020.4 |
| 20260901083541 | 17 | 0 | 0.0 | 14.5 | 0.00 | 0.15 | 0.00 | 87 | 1020.5 |
| 20260901083100 | 17 | 0 | 0.0 | 14.5 | 0.00 | 0.15 | 0.00 | 86 | 1020.5 |
| 20260901082543 | 17 | 242 | 0.0 | 14.5 | 0.00 | 0.15 | 0.00 | 85 | 1020.5 |
| 20260901082041 | 17 | 0 | 1.6 | 14.5 | 0.00 | 0.15 | 0.00 | 85 | 1020.4 |
| 20260901081555 | 17 | 0 | 0.0 | 19.3 | 0.00 | 0.15 | 0.00 | 85 | 1020.3 |
| 20260901081045 | 17 | 227 | 0.0 | 19.3 | 0.00 | 0.15 | 0.00 | 84 | 1020.2 |
| 20260901080545 | 17 | 0 | 3.2 | 19.3 | 0.00 | 0.15 | 0.00 | 83 | 1020.2 |
| 20260901080106 | 17 | 0 | 3.2 | 17.7 | 0.00 | 0.15 | 0.00 | 83 | 1020.2 |
| 20260901075547 | 17 | 229 | 3.2 | 17.7 | 0.00 | 0.15 | 0.00 | 83 | 1020.1 |
| 20260901075046 | 17 | 209 | 3.2 | 16.1 | 0.00 | 0.15 | 0.00 | 82 | 1020.1 |
| 20260901074601 | 17 | 0 | 0.0 | 25.7 | 0.00 | 0.15 | 0.00 | 83 | 1020.1 |
| 20260901074046 | 17 | 223 | 1.6 | 25.7 | 0.00 | 0.15 | 0.00 | 84 | 1020.0 |
| 20260901073545 | 17 | 220 | 0.0 | 11.3 | 0.00 | 0.15 | 0.00 | 85 | 1020.1 |
| 20260901073058 | 17 | 225 | 1.6 | 22.5 | 0.00 | 0.15 | 0.00 | 85 | 1019.9 |
| 20260901072542 | 17 | 221 | 0.0 | 22.5 | 0.00 | 0.15 | 0.00 | 84 | 1020.1 |
| 20260901072042 | 17 | 0 | 1.6 | 22.5 | 0.00 | 0.15 | 0.00 | 86 | 1020.0 |
| 20260901071633 | 17 | 0 | 0.0 | 12.9 | 0.00 | 0.15 | 0.00 | 87 | 1020.0 |
| 20260901071045 | 16 | 0 | 3.2 | 16.1 | 0.00 | 0.15 | 0.00 | 87 | 1020.0 |
| 20260901070544 | 16 | 0 | 1.6 | 16.1 | 0.00 | 0.15 | 0.00 | 87 | 1020.1 |
| 20260901070059 | 16 | 0 | 0.0 | 16.1 | 0.00 | 0.15 | 0.00 | 87 | 1020.0 |
| 20260901065545 | 16 | 0 | 0.0 | 16.1 | 0.00 | 0.15 | 0.00 | 87 | 1020.1 |
| 20260901065046 | 16 | 0 | 3.2 | 16.1 | 0.00 | 0.15 | 0.00 | 87 | 1020.1 |
| 20260901064606 | 16 | 0 | 4.8 | 17.7 | 0.00 | 0.15 | 0.00 | 87 | 1020.1 |
| 20260901064042 | 16 | 0 | 3.2 | 17.7 | 0.00 | 0.15 | 0.00 | 88 | 1020.1 |
| 20260901063545 | 16 | 0 | 3.2 | 17.7 | 0.00 | 0.15 | 0.00 | 88 | 1020.0 |
| 20260901063105 | 16 | 223 | 1.6 | 12.9 | 0.00 | 0.15 | 0.00 | 88 | 1020.0 |
| 20260901062545 | 16 | 0 | 1.6 | 12.9 | 0.00 | 0.15 | 0.00 | 88 | 1020.0 |
| 20260901062048 | 16 | 0 | 0.0 | 9.7 | 0.00 | 0.15 | 0.00 | 89 | 1019.8 |
| 20260901061603 | 16 | 226 | 0.0 | 8.0 | 0.00 | 0.15 | 0.00 | 90 | 1019.8 |
| 20260901061045 | 16 | 0 | 0.0 | 0.0 | 0.00 | 0.15 | 0.00 | 90 | 1019.8 |
| 20260901060546 | 15 | 0 | 0.0 | 11.3 | 0.00 | 0.15 | 0.00 | 90 | 1019.7 |
| 20260901060117 | 15 | 0 | 0.0 | 11.3 | 0.00 | 0.15 | 0.00 | 90 | 1019.7 |
| 20260901055545 | 15 | 0 | 0.0 | 11.3 | 0.00 | 0.15 | 0.00 | 91 | 1019.6 |
| 20260901055046 | 15 | 229 | 0.0 | 11.3 | 0.00 | 0.15 | 0.00 | 91 | 1019.6 |
| 20260901054606 | 15 | 0 | 0.0 | 11.3 | 0.00 | 0.15 | 0.00 | 91 | 1019.7 |
| 20260901054045 | 15 | 0 | 0.0 | 11.3 | 0.00 | 0.15 | 0.00 | 91 | 1019.6 |
| 20260901053546 | 15 | 0 | 0.0 | 9.7 | 0.00 | 0.15 | 0.00 | 91 | 1019.5 |
| 20260901053114 | 15 | 0 | 0.0 | 0.0 | 0.00 | 0.15 | 0.00 | 91 | 1019.5 |
| 20260901052546 | 15 | 0 | 0.0 | 0.0 | 0.00 | 0.15 | 0.00 | 91 | 1019.5 |
| 20260901052045 | 15 | 0 | 0.0 | 0.0 | 0.00 | 0.15 | 0.00 | 91 | 1019.4 |
| 20260901051611 | 15 | 0 | 0.0 | 0.0 | 0.00 | 0.15 | 0.00 | 91 | 1019.3 |
| 20260901051045 | 15 | 0 | 0.0 | 1.6 | 0.00 | 0.15 | 0.00 | 90 | 1019.4 |
| 20260901050546 | 15 | 0 | 0.0 | 1.6 | 0.00 | 0.15 | 0.00 | 90 | 1019.2 |
| 20260901050107 | 15 | 0 | 0.0 | 0.0 | 0.00 | 0.15 | 0.00 | 90 | 1019.2 |
| 20260901045544 | 15 | 0 | 0.0 | 8.0 | 0.00 | 0.15 | 0.00 | 90 | 1019.1 |
| 20260901045047 | 15 | 0 | 0.0 | 8.0 | 0.00 | 0.15 | 0.00 | 90 | 1019.1 |
| 20260901044609 | 15 | 0 | 0.0 | 8.0 | 0.00 | 0.15 | 0.00 | 90 | 1019.1 |
| 20260901044045 | 15 | 0 | 0.0 | 8.0 | 0.00 | 0.15 | 0.00 | 90 | 1018.9 |
| 20260901043546 | 15 | 0 | 0.0 | 0.0 | 0.00 | 0.15 | 0.00 | 90 | 1018.9 |
| 20260901043126 | 15 | 0 | 0.0 | 9.7 | 0.00 | 0.15 | 0.00 | 90 | 1018.8 |
| 20260901042545 | 15 | 0 | 0.0 | 9.7 | 0.00 | 0.15 | 0.00 | 91 | 1018.7 |
| 20260901042046 | 15 | 0 | 0.0 | 9.7 | 0.00 | 0.15 | 0.00 | 91 | 1018.6 |
| 20260901041603 | 15 | 0 | 0.0 | 3.2 | 0.00 | 0.15 | 0.00 | 91 | 1018.6 |
| 20260901041047 | 15 | 0 | 0.0 | 3.2 | 0.00 | 0.15 | 0.00 | 91 | 1018.8 |
| 20260901040546 | 15 | 0 | 0.0 | 0.0 | 0.00 | 0.15 | 0.00 | 91 | 1018.7 |
| 20260901040125 | 15 | 0 | 0.0 | 0.0 | 0.00 | 0.15 | 0.00 | 91 | 1018.7 |
| 20260901035547 | 15 | 0 | 0.0 | 0.0 | 0.00 | 0.15 | 0.00 | 91 | 1018.6 |
| 20260901035047 | 15 | 0 | 0.0 | 0.0 | 0.00 | 0.15 | 0.00 | 91 | 1018.6 |
| 20260901034610 | 15 | 0 | 0.0 | 0.0 | 0.00 | 0.15 | 0.00 | 90 | 1018.5 |
| 20260901034046 | 16 | 0 | 0.0 | 1.6 | 0.00 | 0.15 | 0.00 | 90 | 1018.4 |
| 20260901033546 | 16 | 0 | 0.0 | 6.4 | 0.00 | 0.15 | 0.00 | 90 | 1018.5 |
| 20260901033136 | 16 | 0 | 0.0 | 16.1 | 0.00 | 0.15 | 0.00 | 90 | 1018.5 |
| 20260901032548 | 16 | 0 | 0.0 | 16.1 | 0.00 | 0.15 | 0.00 | 90 | 1018.4 |
| 20260901032047 | 16 | 237 | 0.0 | 14.5 | 0.00 | 0.15 | 0.00 | 90 | 1018.4 |
| 20260901031623 | 16 | 0 | 0.0 | 12.9 | 0.00 | 0.15 | 0.00 | 90 | 1018.4 |
| 20260901031047 | 16 | 232 | 0.0 | 8.0 | 0.00 | 0.15 | 0.00 | 90 | 1018.4 |
| 20260901030550 | 16 | 0 | 0.0 | 6.4 | 0.00 | 0.15 | 0.00 | 90 | 1018.4 |
| 20260901030105 | 16 | 0 | 0.0 | 14.5 | 0.00 | 0.15 | 0.00 | 90 | 1018.5 |
| 20260901025547 | 16 | 0 | 0.0 | 14.5 | 0.00 | 0.18 | 0.00 | 90 | 1018.5 |
| 20260901025047 | 16 | 248 | 0.0 | 11.3 | 0.00 | 0.18 | 0.00 | 90 | 1018.4 |
| 20260901024603 | 16 | 240 | 0.0 | 0.0 | 0.00 | 0.18 | 0.00 | 90 | 1018.4 |
| 20260901024047 | 16 | 0 | 0.0 | 0.0 | 0.00 | 0.18 | 0.00 | 90 | 1018.4 |
| 20260901023546 | 16 | 0 | 0.0 | 4.8 | 0.00 | 0.18 | 0.00 | 90 | 1018.4 |
| 20260901023109 | 16 | 0 | 0.0 | 12.9 | 0.00 | 0.18 | 0.00 | 90 | 1018.4 |
| 20260901022546 | 16 | 0 | 1.6 | 12.9 | 0.00 | 0.18 | 0.00 | 90 | 1018.3 |
| 20260901022046 | 16 | 0 | 1.6 | 9.7 | 0.00 | 0.18 | 0.00 | 90 | 1018.3 |
| 20260901021558 | 16 | 0 | 0.0 | 16.1 | 0.00 | 0.18 | 0.00 | 90 | 1018.3 |
| 20260901021048 | 16 | 0 | 0.0 | 16.1 | 0.00 | 0.18 | 0.00 | 90 | 1018.4 |
| 20260901020545 | 16 | 0 | 0.0 | 12.9 | 0.00 | 0.18 | 0.00 | 90 | 1018.3 |
| 20260901020057 | 16 | 0 | 1.6 | 16.1 | 0.00 | 0.18 | 0.00 | 90 | 1018.3 |
| 20260901015543 | 16 | 205 | 0.0 | 16.1 | 0.00 | 0.18 | 0.00 | 90 | 1018.2 |
| 20260901015047 | 16 | 0 | 1.6 | 14.5 | 0.00 | 0.18 | 0.00 | 89 | 1018.2 |
| 20260901014608 | 16 | 0 | 0.0 | 12.9 | 0.00 | 0.18 | 0.00 | 90 | 1018.3 |
| 20260901014046 | 16 | 0 | 1.6 | 12.9 | 0.00 | 0.18 | 0.00 | 90 | 1018.3 |
| 20260901013546 | 16 | 228 | 0.0 | 9.7 | 0.00 | 0.18 | 0.00 | 90 | 1018.3 |
| 20260901013104 | 16 | 221 | 0.0 | 8.0 | 0.00 | 0.18 | 0.00 | 90 | 1018.2 |
| 20260901012546 | 16 | 0 | 1.6 | 12.9 | 0.00 | 0.18 | 0.00 | 90 | 1018.3 |
| 20260901012048 | 16 | 0 | 0.0 | 12.9 | 0.00 | 0.18 | 0.00 | 90 | 1018.2 |
| 20260901011604 | 16 | 0 | 0.0 | 12.9 | 0.00 | 0.18 | 0.00 | 90 | 1018.3 |
| 20260901011047 | 16 | 0 | 1.6 | 11.3 | 0.00 | 0.18 | 0.00 | 90 | 1018.2 |
| 20260901010547 | 15 | 0 | 0.0 | 11.3 | 0.00 | 0.18 | 0.00 | 90 | 1018.2 |
| 20260901010104 | 15 | 0 | 0.0 | 11.3 | 0.00 | 0.18 | 0.00 | 90 | 1018.2 |
| 20260901005546 | 15 | 0 | 0.0 | 11.3 | 0.00 | 0.18 | 0.00 | 90 | 1018.2 |
| 20260901005046 | 15 | 0 | 0.0 | 9.7 | 0.00 | 0.18 | 0.00 | 90 | 1018.2 |
| 20260901004609 | 15 | 0 | 0.0 | 14.5 | 0.00 | 0.18 | 0.00 | 90 | 1018.1 |
| 20260901004046 | 15 | 0 | 1.6 | 14.5 | 0.00 | 0.18 | 0.00 | 90 | 1018.1 |
| 20260901003546 | 15 | 0 | 1.6 | 14.5 | 0.00 | 0.18 | 0.00 | 90 | 1018.0 |
| 20260901003105 | 15 | 0 | 0.0 | 11.3 | 0.00 | 0.18 | 0.00 | 90 | 1018.0 |
| 20260901002547 | 15 | 0 | 0.0 | 9.7 | 0.00 | 0.18 | 0.00 | 90 | 1018.1 |
| 20260901002047 | 15 | 0 | 0.0 | 9.7 | 0.00 | 0.18 | 0.00 | 89 | 1018.0 |
| 20260901001621 | 15 | 0 | 0.0 | 9.7 | 0.00 | 0.18 | 0.00 | 89 | 1017.9 |
| 20260901001047 | 15 | 0 | 0.0 | 14.5 | 0.00 | 0.18 | 0.00 | 89 | 1017.8 |
| 20260901000546 | 15 | 0 | 0.0 | 14.5 | 0.00 | 0.18 | 0.00 | 89 | 1017.7 |
| 20260901000114 | 15 | 0 | 0.0 | 16.1 | 0.00 | 0.18 | 0.00 | 88 | 1017.8 |
| 20260831235547 | 15 | 0 | 1.6 | 16.1 | 0.00 | 0.18 | 0.00 | 88 | 1017.9 |
| 20260831235047 | 15 | 244 | 3.2 | 16.1 | 0.00 | 0.18 | 0.00 | 88 | 1018.0 |
| 20260831234606 | 15 | 0 | 1.6 | 14.5 | 0.00 | 0.18 | 0.00 | 88 | 1017.9 |
| 20260831234047 | 15 | 0 | 0.0 | 11.3 | 0.00 | 0.18 | 0.00 | 88 | 1018.0 |
| 20260831233546 | 15 | 0 | 0.0 | 6.4 | 0.00 | 0.18 | 0.00 | 88 | 1018.0 |
| 20260831233104 | 15 | 0 | 0.0 | 4.8 | 0.00 | 0.18 | 0.00 | 87 | 1017.8 |
| 20260831232546 | 15 | 0 | 0.0 | 6.4 | 0.00 | 0.18 | 0.00 | 88 | 1018.0 |
| 20260831232045 | 15 | 0 | 0.0 | 6.4 | 0.00 | 0.18 | 0.00 | 88 | 1017.9 |
| 20260831231600 | 15 | 234 | 0.0 | 8.0 | 0.00 | 0.18 | 0.00 | 88 | 1017.9 |
| 20260831231046 | 15 | 0 | 0.0 | 8.0 | 0.00 | 0.18 | 0.00 | 88 | 1017.8 |